VIV4212 MMTL-MMMY

Flight info

Callsign VIV4212
Flight time N/A
Altitude 38000
Route PIROK1A PIROK UT85 COFRE UM206 SESNO UJ15E RETOS RETOS1A
Aircraft A320/M-SDE3FGHIRWY/LB1

Departure

Time 2026-05-04 22:04
Airport Felipe Carrillo Puerto International Airport Tulum (MMTL)

Arrival

Time N/A
Airport Monterrey International Airport (MMMY)
Time Latitude Longitude Altitude Speed Heading
2026-05-04 21:32 20.16907 -87.65972 85 ft 0 kts 208°
2026-05-04 21:57 20.16911 -87.65969 89 ft 2 kts 207°
2026-05-04 21:57 20.16926 -87.65961 87 ft 2 kts 210°
2026-05-04 21:57 20.16940 -87.65952 87 ft 2 kts 210°
2026-05-04 21:58 20.16954 -87.65943 88 ft 2 kts 212°
2026-05-04 21:58 20.16968 -87.65934 90 ft 2 kts 216°
2026-05-04 21:58 20.16981 -87.65923 90 ft 2 kts 230°
2026-05-04 21:58 20.16988 -87.65908 90 ft 2 kts 291°
2026-05-04 21:59 20.16985 -87.65901 90 ft 0 kts 300°
2026-05-04 21:59 20.16985 -87.65900 90 ft 0 kts 300°
2026-05-04 22:00 20.16992 -87.65912 91 ft 6 kts 302°
2026-05-04 22:00 20.17032 -87.65990 87 ft 17 kts 298°
2026-05-04 22:00 20.17103 -87.66125 89 ft 23 kts 300°
2026-05-04 22:01 20.17199 -87.66302 89 ft 30 kts 300°
2026-05-04 22:01 20.17307 -87.66501 87 ft 32 kts 300°
2026-05-04 22:01 20.17420 -87.66712 88 ft 34 kts 298°
2026-05-04 22:01 20.17539 -87.66933 90 ft 35 kts 301°
2026-05-04 22:02 20.17663 -87.67164 88 ft 37 kts 299°
2026-05-04 22:02 20.17793 -87.67408 88 ft 39 kts 299°
2026-05-04 22:02 20.17896 -87.67603 91 ft 24 kts 299°
2026-05-04 22:02 20.17975 -87.67704 88 ft 9 kts 21°
2026-05-04 22:03 20.18051 -87.67649 89 ft 14 kts 63°
2026-05-04 22:03 20.18039 -87.67543 91 ft 15 kts 116°
2026-05-04 22:03 20.18023 -87.67512 90 ft 5 kts 119°
2026-05-04 22:03 20.18000 -87.67469 88 ft 11 kts 119°
2026-05-04 22:04 20.17817 -87.67124 92 ft 98 kts 120°
2026-05-04 22:04 20.17357 -87.66274 88 ft 163 kts 120°
2026-05-04 22:04 20.16708 -87.65088 320 ft 205 kts 118°
2026-05-04 22:04 20.15931 -87.63618 726 ft 251 kts 120°
2026-05-04 22:05 20.14984 -87.61899 1321 ft 285 kts 121°
2026-05-04 22:05 20.13903 -87.60031 2034 ft 306 kts 121°
2026-05-04 22:05 20.12734 -87.58072 2811 ft 319 kts 121°
2026-05-04 22:05 20.11565 -87.56017 3477 ft 334 kts 120°
2026-05-04 22:06 20.10377 -87.53821 3936 ft 351 kts 119°
2026-05-04 22:06 20.09172 -87.51535 4421 ft 366 kts 119°
2026-05-04 22:06 20.07917 -87.49164 5201 ft 368 kts 120°
2026-05-04 22:06 20.06627 -87.46806 6050 ft 372 kts 120°
2026-05-04 22:07 20.05158 -87.44522 6765 ft 379 kts 132°
2026-05-04 22:07 20.03084 -87.42757 7464 ft 388 kts 152°
2026-05-04 22:07 20.00519 -87.41804 8193 ft 396 kts 171°
2026-05-04 22:07 19.97750 -87.41841 8936 ft 404 kts 192°
2026-05-04 22:08 19.95121 -87.42912 9717 ft 409 kts 212°
2026-05-04 22:08 19.92988 -87.44907 10529 ft 411 kts 233°
2026-05-04 22:08 19.91634 -87.47567 11352 ft 413 kts 253°
2026-05-04 22:08 19.91234 -87.50580 12195 ft 415 kts 273°
2026-05-04 22:09 19.91866 -87.53566 13076 ft 418 kts 293°
2026-05-04 22:09 19.93317 -87.56208 13926 ft 422 kts 303°
2026-05-04 22:09 19.94933 -87.58821 14721 ft 425 kts 303°
2026-05-04 22:09 19.96571 -87.61448 15539 ft 427 kts 303°
2026-05-04 22:10 19.98214 -87.64083 16379 ft 429 kts 302°
2026-05-04 22:10 19.99859 -87.66726 17237 ft 429 kts 302°
2026-05-04 22:10 20.01396 -87.69444 18131 ft 428 kts 294°
2026-05-04 22:10 20.02264 -87.72455 18908 ft 427 kts 279°
2026-05-04 22:11 20.02331 -87.75604 19705 ft 428 kts 264°
2026-05-04 22:11 20.01865 -87.78729 20521 ft 429 kts 262°
2026-05-04 22:11 20.01373 -87.81860 21363 ft 429 kts 262°
2026-05-04 22:11 20.00882 -87.84986 22221 ft 429 kts 263°
2026-05-04 22:12 20.00390 -87.88108 23118 ft 428 kts 263°
2026-05-04 22:12 19.99902 -87.91217 23936 ft 426 kts 264°
2026-05-04 22:12 19.99671 -87.94283 24703 ft 418 kts 274°
2026-05-04 22:12 20.00012 -87.97312 25493 ft 408 kts 285°
2026-05-04 22:13 20.00890 -88.00133 26309 ft 397 kts 297°
2026-05-04 22:13 20.02139 -88.02711 27043 ft 390 kts 300°
2026-05-04 22:13 20.03408 -88.05257 27505 ft 391 kts 300°
2026-05-04 22:13 20.04776 -88.07749 27890 ft 390 kts 308°
2026-05-04 22:14 20.06583 -88.09886 28256 ft 389 kts 320°
2026-05-04 22:14 20.08785 -88.11547 28618 ft 389 kts 332°
2026-05-04 22:14 20.11278 -88.12659 28983 ft 391 kts 344°
2026-05-04 22:14 20.13957 -88.13160 29380 ft 393 kts 355°
2026-05-04 22:15 20.16704 -88.13082 29794 ft 396 kts
2026-05-04 22:15 20.19457 -88.12897 30172 ft 397 kts
2026-05-04 22:15 20.22212 -88.12593 30471 ft 401 kts
2026-05-04 22:15 20.24988 -88.12276 30745 ft 400 kts 354°
2026-05-04 22:16 20.27638 -88.12960 30995 ft 400 kts 335°
2026-05-04 22:16 20.29995 -88.14539 31276 ft 403 kts 320°
2026-05-04 22:16 20.31901 -88.16747 31558 ft 409 kts 306°
2026-05-04 22:16 20.33220 -88.19443 31849 ft 416 kts 291°
2026-05-04 22:17 20.33781 -88.22486 32158 ft 424 kts 277°
2026-05-04 22:17 20.33913 -88.25639 32471 ft 427 kts 275°
2026-05-04 22:17 20.34009 -88.28810 32807 ft 429 kts 275°
2026-05-04 22:17 20.34091 -88.31989 33130 ft 430 kts 275°
2026-05-04 22:18 20.34171 -88.35181 33460 ft 432 kts 274°
2026-05-04 22:18 20.34254 -88.38385 33793 ft 433 kts 274°
2026-05-04 22:18 20.34341 -88.41558 34091 ft 434 kts 274°
2026-05-04 22:18 20.34436 -88.44775 34399 ft 435 kts 274°
2026-05-04 22:19 20.34534 -88.47998 34708 ft 435 kts 274°
2026-05-04 22:19 20.34633 -88.51224 35019 ft 436 kts 274°
2026-05-04 22:19 20.34727 -88.54451 35332 ft 436 kts 274°
2026-05-04 22:19 20.34817 -88.57678 35728 ft 433 kts 274°
2026-05-04 22:20 20.34904 -88.60851 36454 ft 423 kts 273°
2026-05-04 22:20 20.34989 -88.63940 37204 ft 412 kts 273°
2026-05-04 22:20 20.35075 -88.66967 37726 ft 407 kts 272°
2026-05-04 22:20 20.35162 -88.69992 37888 ft 410 kts 272°
2026-05-04 22:21 20.35251 -88.73049 37922 ft 416 kts 272°
2026-05-04 22:21 20.35425 -88.79261 37918 ft 428 kts 272°
2026-05-04 22:22 20.35598 -88.85601 37908 ft 422 kts 272°
2026-05-04 22:22 20.35763 -88.91780 37917 ft 416 kts 272°
2026-05-04 22:23 20.35931 -88.97942 37917 ft 416 kts 272°
2026-05-04 22:23 20.36092 -89.04099 37915 ft 416 kts 272°
2026-05-04 22:24 20.36251 -89.10263 37915 ft 416 kts 272°
2026-05-04 22:24 20.36407 -89.16380 37915 ft 416 kts 272°
2026-05-04 22:25 20.36566 -89.22541 37915 ft 416 kts 272°
2026-05-04 22:25 20.36720 -89.28709 37908 ft 417 kts 272°
2026-05-04 22:26 20.36872 -89.34894 37908 ft 418 kts 272°
2026-05-04 22:26 20.37021 -89.41081 37909 ft 418 kts 272°
2026-05-04 22:27 20.37168 -89.47269 37908 ft 418 kts 272°
2026-05-04 22:27 20.37315 -89.53416 37907 ft 418 kts 272°
2026-05-04 22:28 20.37457 -89.59600 37907 ft 418 kts 272°
2026-05-04 22:28 20.37601 -89.65789 37907 ft 418 kts 272°
2026-05-04 22:29 20.37744 -89.71973 37909 ft 418 kts 272°
2026-05-04 22:29 20.37880 -89.78162 37907 ft 418 kts 272°
2026-05-04 22:30 20.38009 -89.84349 37906 ft 418 kts 272°
2026-05-04 22:30 20.38140 -89.90494 37906 ft 418 kts 272°
2026-05-04 22:31 20.38272 -89.96678 37906 ft 417 kts 272°
2026-05-04 22:31 20.38392 -90.02868 37902 ft 418 kts 272°
2026-05-04 22:32 20.38951 -90.09006 37902 ft 417 kts 285°
2026-05-04 22:32 20.40998 -90.14797 37903 ft 418 kts 291°
2026-05-04 22:33 20.43171 -90.20544 37902 ft 418 kts 291°
2026-05-04 22:33 20.45341 -90.26293 37899 ft 418 kts 291°
2026-05-04 22:34 20.47511 -90.31996 37921 ft 418 kts 291°
2026-05-04 22:34 20.49692 -90.37723 37924 ft 416 kts 291°
2026-05-04 22:35 20.51667 -90.43477 37918 ft 406 kts 285°
2026-05-04 22:35 20.53187 -90.49326 37923 ft 414 kts 285°
2026-05-04 22:36 20.54774 -90.55228 37922 ft 410 kts 286°
2026-05-04 22:36 20.56336 -90.61011 37918 ft 403 kts 286°
2026-05-04 22:37 20.57620 -90.65781 37918 ft 402 kts 286°
2026-05-04 22:37 20.59400 -90.72455 37919 ft 403 kts 285°
2026-05-04 22:38 20.60953 -90.78297 37927 ft 415 kts 286°
2026-05-04 22:38 20.62537 -90.84244 37924 ft 417 kts 286°
2026-05-04 22:39 20.64338 -90.89015 37925 ft 418 kts 294°
2026-05-04 22:39 20.66765 -90.94654 37929 ft 418 kts 294°
2026-05-04 22:40 20.69187 -91.00295 37929 ft 418 kts 294°
2026-05-04 22:40 20.71609 -91.05945 37929 ft 418 kts 294°
2026-05-04 22:41 20.74004 -91.11557 37932 ft 418 kts 294°
2026-05-04 22:41 20.76413 -91.17211 37925 ft 418 kts 294°
2026-05-04 22:42 20.78829 -91.22873 37928 ft 419 kts 294°
2026-05-04 22:42 20.81248 -91.28533 37945 ft 419 kts 294°
2026-05-04 22:43 20.83662 -91.34205 37946 ft 419 kts 294°
2026-05-04 22:43 20.86062 -91.39884 37948 ft 419 kts 294°
2026-05-04 22:44 20.88457 -91.45529 37951 ft 419 kts 294°
2026-05-04 22:44 20.90863 -91.51210 37948 ft 419 kts 294°
2026-05-04 22:45 20.93272 -91.56907 37941 ft 421 kts 294°
2026-05-04 22:45 20.96895 -91.65478 37941 ft 422 kts 295°
2026-05-04 22:46 20.99300 -91.71153 37941 ft 422 kts 295°
2026-05-04 22:46 21.01711 -91.76870 37945 ft 419 kts 294°
2026-05-04 22:47 21.04060 -91.82465 37939 ft 410 kts 294°
2026-05-04 22:47 21.06429 -91.88091 37942 ft 418 kts 294°
2026-05-04 22:48 21.08822 -91.93773 37934 ft 420 kts 295°
2026-05-04 22:48 21.11201 -91.99450 37934 ft 421 kts 294°
2026-05-04 22:49 21.13600 -92.05172 37950 ft 422 kts 295°
2026-05-04 22:49 21.16007 -92.10921 37950 ft 423 kts 295°
2026-05-04 22:50 21.18419 -92.16677 37951 ft 424 kts 295°
2026-05-04 22:50 21.20830 -92.22447 37950 ft 424 kts 295°
2026-05-04 22:51 21.23221 -92.28176 37950 ft 424 kts 295°
2026-05-04 22:51 21.25628 -92.33953 37940 ft 425 kts 295°
2026-05-04 22:52 21.28038 -92.39748 37943 ft 426 kts 295°
2026-05-04 22:52 21.30449 -92.45542 37940 ft 426 kts 295°
2026-05-04 22:53 21.32864 -92.51338 37941 ft 426 kts 295°
2026-05-04 22:53 21.35244 -92.57061 37937 ft 417 kts 295°
2026-05-04 22:54 21.37608 -92.62769 37935 ft 419 kts 295°
2026-05-04 22:54 21.39937 -92.68416 37931 ft 415 kts 295°
2026-05-04 22:55 21.42285 -92.74090 37932 ft 416 kts 295°
2026-05-04 22:55 21.44630 -92.79774 37932 ft 416 kts 295°
2026-05-04 22:56 21.46981 -92.85455 37929 ft 417 kts 295°
2026-05-04 22:56 21.49331 -92.91143 37924 ft 417 kts 295°
2026-05-04 22:57 21.51681 -92.96836 37929 ft 416 kts 295°
2026-05-04 22:57 21.54032 -93.02519 37929 ft 417 kts 295°
2026-05-04 22:58 21.56343 -93.08172 37918 ft 415 kts 295°
2026-05-04 22:58 21.58662 -93.13849 37944 ft 415 kts 295°
2026-05-04 22:59 21.60984 -93.19528 37944 ft 415 kts 295°
2026-05-04 22:59 21.63313 -93.25201 37942 ft 415 kts 295°
2026-05-04 23:00 21.65643 -93.30898 37941 ft 419 kts 295°
2026-05-04 23:00 21.67998 -93.36669 37940 ft 423 kts 295°
2026-05-04 23:01 21.70345 -93.42419 37944 ft 423 kts 295°
2026-05-04 23:01 21.72710 -93.48213 37943 ft 423 kts 295°
2026-05-04 23:02 21.75068 -93.54006 37938 ft 423 kts 295°
2026-05-04 23:02 21.77431 -93.59807 37956 ft 423 kts 295°
2026-05-04 23:03 21.79784 -93.65609 37954 ft 423 kts 295°
2026-05-04 23:03 21.82140 -93.71410 37955 ft 423 kts 297°
2026-05-04 23:04 21.85165 -93.76752 37954 ft 421 kts 304°
2026-05-04 23:04 21.88382 -93.82024 37926 ft 421 kts 304°
2026-05-04 23:05 21.91595 -93.87300 37947 ft 421 kts 304°
2026-05-04 23:05 21.94791 -93.92571 37955 ft 420 kts 304°
2026-05-04 23:06 21.97986 -93.97845 37957 ft 420 kts 304°
2026-05-04 23:06 22.01180 -94.03121 37962 ft 420 kts 304°
2026-05-04 23:07 22.04371 -94.08392 37948 ft 420 kts 304°
2026-05-04 23:07 22.07543 -94.13627 37947 ft 420 kts 304°
2026-05-04 23:08 22.10728 -94.18892 37967 ft 418 kts 304°
2026-05-04 23:08 22.13891 -94.24144 37969 ft 416 kts 304°
2026-05-04 23:09 22.17043 -94.29372 37966 ft 415 kts 304°
2026-05-04 23:09 22.20183 -94.34587 37973 ft 414 kts 304°
2026-05-04 23:10 22.23303 -94.39761 37962 ft 414 kts 304°
2026-05-04 23:10 22.26441 -94.44967 37951 ft 414 kts 304°
2026-05-04 23:11 22.29566 -94.50179 37954 ft 413 kts 304°
2026-05-04 23:11 22.32687 -94.55394 37953 ft 413 kts 304°
2026-05-04 23:12 22.35809 -94.60609 37938 ft 413 kts 304°
2026-05-04 23:12 22.38932 -94.65826 37948 ft 414 kts 304°
2026-05-04 23:13 22.42033 -94.71004 37957 ft 412 kts 304°
2026-05-04 23:13 22.45139 -94.76200 37960 ft 411 kts 304°
2026-05-04 23:14 22.48243 -94.81387 37955 ft 410 kts 304°
2026-05-04 23:14 22.51336 -94.86571 37954 ft 410 kts 304°
2026-05-04 23:15 22.54421 -94.91751 37951 ft 410 kts 304°
2026-05-04 23:15 22.57513 -94.96932 37944 ft 410 kts 304°
2026-05-04 23:16 22.60570 -95.02084 37944 ft 410 kts 304°
2026-05-04 23:16 22.63653 -95.07282 37940 ft 410 kts 304°
2026-05-04 23:17 22.66735 -95.12479 37941 ft 410 kts 304°
2026-05-04 23:17 22.69824 -95.17673 37940 ft 410 kts 304°
2026-05-04 23:18 22.72910 -95.22879 37938 ft 411 kts 304°
2026-05-04 23:18 22.75997 -95.28094 37934 ft 412 kts 304°
2026-05-04 23:19 22.79062 -95.33295 37928 ft 412 kts 304°
2026-05-04 23:19 22.82154 -95.38537 37927 ft 413 kts 304°
2026-05-04 23:20 22.85260 -95.43786 37930 ft 414 kts 304°
2026-05-04 23:20 22.88365 -95.49045 37929 ft 414 kts 304°
2026-05-04 23:21 22.91416 -95.54241 37927 ft 409 kts 304°
2026-05-04 23:21 22.94491 -95.59481 37926 ft 413 kts 304°
2026-05-04 23:22 22.97589 -95.64735 37923 ft 413 kts 304°
2026-05-04 23:22 23.00657 -95.69965 37934 ft 414 kts 304°
2026-05-04 23:23 23.03742 -95.75229 37920 ft 413 kts 304°
2026-05-04 23:23 23.06831 -95.80496 37920 ft 414 kts 304°
2026-05-04 23:24 23.09919 -95.85775 37922 ft 414 kts 304°
2026-05-04 23:24 23.13001 -95.91059 37925 ft 414 kts 304°
2026-05-04 23:25 23.16087 -95.96345 37923 ft 414 kts 304°
2026-05-04 23:25 23.19149 -96.01594 37925 ft 414 kts 303°
2026-05-04 23:26 23.22230 -96.06881 37930 ft 415 kts 304°
2026-05-04 23:26 23.25326 -96.12181 37921 ft 415 kts 303°
2026-05-04 23:27 23.28416 -96.17490 37923 ft 415 kts 303°
2026-05-04 23:27 23.31496 -96.22808 37936 ft 416 kts 303°
2026-05-04 23:28 23.34587 -96.28130 37938 ft 416 kts 303°
2026-05-04 23:28 23.37653 -96.33413 37938 ft 415 kts 303°
2026-05-04 23:29 23.40730 -96.38733 37932 ft 415 kts 303°
2026-05-04 23:29 23.43803 -96.44051 37932 ft 415 kts 303°
2026-05-04 23:30 23.46876 -96.49374 37928 ft 415 kts 303°
2026-05-04 23:30 23.49952 -96.54697 37922 ft 415 kts 303°
2026-05-04 23:31 23.53029 -96.60027 37923 ft 416 kts 303°
2026-05-04 23:31 23.56080 -96.65329 37925 ft 416 kts 303°
2026-05-04 23:32 23.59156 -96.70669 37930 ft 416 kts 303°
2026-05-04 23:32 23.62234 -96.76012 37937 ft 416 kts 303°
2026-05-04 23:33 23.65301 -96.81345 37935 ft 415 kts 303°
2026-05-04 23:33 23.68362 -96.86679 37931 ft 414 kts 302°
2026-05-04 23:34 23.71392 -96.91973 37923 ft 414 kts 302°
2026-05-04 23:34 23.74441 -96.97304 37919 ft 414 kts 302°
2026-05-04 23:35 23.77490 -97.02639 37913 ft 414 kts 302°
2026-05-04 23:35 23.80539 -97.07972 37910 ft 414 kts 302°
2026-05-04 23:36 23.83583 -97.13311 37909 ft 414 kts 302°
2026-05-04 23:36 23.86605 -97.18619 37907 ft 414 kts 302°
2026-05-04 23:37 23.89648 -97.23966 37911 ft 415 kts 302°
2026-05-04 23:37 23.92688 -97.29319 37928 ft 414 kts 302°
2026-05-04 23:38 23.95727 -97.34665 37922 ft 414 kts 302°
2026-05-04 23:38 23.98764 -97.40009 37920 ft 413 kts 302°
2026-05-04 23:39 24.01788 -97.45352 37922 ft 413 kts 302°